Stations météo

réclame
Mon MeteoGroup
Marina Di Ginosa, Italie (16325): Température de l'air & dewpoint: 15.01.2019 17:00:00 - 21.01.2019 17:00:00 (CET)Marina Di Ginosa, Italie (16325): Vitesse du vent: 15.01.2019 17:00:00 - 21.01.2019 17:00:00 (CET)Marina Di Ginosa, Italie (16325): Direction du vent: 15.01.2019 17:00:00 - 21.01.2019 17:00:00 (CET)Marina Di Ginosa, Italie (16325): reduced air pressure: 15.01.2019 17:00:00 - 21.01.2019 17:00:00 (CET)Marina Di Ginosa, Italie (16325): visibility: 15.01.2019 17:00:00 - 21.01.2019 17:00:00 (CET)
Date & Time tt [°C] td [°C] ff [km/h] ff [knt] dd ppp [hPa] vv [km]
21.01.2019 17:00:00 - - - - - - -
21.01.2019 16:00:00 14,0 9,8 21 11 SSE 1011,9 20
21.01.2019 15:00:00 14,0 11,0 13 7 SE - 10
21.01.2019 14:00:00 14,0 11,0 8 4 SSE - 10
21.01.2019 13:00:00 14,0 10,0 5 3 SE 1012,9 20
21.01.2019 12:00:00 14,0 10,0 4 2 - - 10
21.01.2019 11:00:00 - - - - - - -
21.01.2019 10:00:00 8,6 8,2 9 5 W 1013,7 20
21.01.2019 09:00:00 7,0 6,0 8 4 NW - 10
21.01.2019 08:00:00 7,0 6,0 9 5 NNW - 10
21.01.2019 07:00:00 6,2 6,1 8 4 NW 1013,3 25
21.01.2019 06:00:00 - - - - - - -
21.01.2019 05:00:00 - - - - - - -
21.01.2019 04:00:00 6,0 5,9 11 6 NW 1013,3 25
21.01.2019 03:00:00 - - - - - - -
21.01.2019 02:00:00 - - - - - - -
21.01.2019 01:00:00 7,4 6,8 8 4 N 1013,5 25
21.01.2019 00:00:00 8,0 7,0 8 4 NNW - 10
20.01.2019 23:00:00 10,0 9,0 8 4 N - 10
20.01.2019 22:00:00 11,0 9,2 21 11 SE 1014,0 12
20.01.2019 21:00:00 11,0 8,0 13 7 S - 10
20.01.2019 20:00:00 12,0 9,0 22 12 E - 10
20.01.2019 19:00:00 10,0 7,6 0 0 N 1013,1 30
20.01.2019 18:00:00 11,0 7,0 8 4 ESE - 10
20.01.2019 17:00:00 13,0 7,0 13 7 ESE - 10
20.01.2019 16:00:00 13,8 8,2 9 5 E 1013,0 30
20.01.2019 15:00:00 14,0 9,0 5 3 ESE - 10
20.01.2019 14:00:00 14,0 9,0 8 4 ESE - 10
20.01.2019 13:00:00 13,8 8,4 5 3 ESE 1013,4 25
20.01.2019 12:00:00 14,0 7,0 5 3 SSE - 10
20.01.2019 11:00:00 11,0 5,0 4 2 - - 10
20.01.2019 10:00:00 7,4 5,0 8 4 W 1014,3 25
20.01.2019 09:00:00 5,0 4,0 9 5 NW - 10
20.01.2019 08:00:00 3,0 3,0 13 7 NW - 10
20.01.2019 07:00:00 3,0 2,1 11 6 NW 1013,4 20
20.01.2019 06:00:00 4,0 3,0 13 7 NW - 10
20.01.2019 05:00:00 4,0 3,0 15 8 WNW - 10
20.01.2019 04:00:00 4,0 3,3 15 8 WNW 1012,5 20
20.01.2019 03:00:00 5,0 4,0 13 7 WNW - 10
20.01.2019 02:00:00 5,0 4,0 15 8 WNW - 10
20.01.2019 01:00:00 4,8 4,1 15 8 NW 1013,1 20
20.01.2019 00:00:00 5,0 5,0 13 7 WNW - 10
19.01.2019 23:00:00 5,0 5,0 13 7 W - 10
19.01.2019 22:00:00 6,8 5,3 8 4 NW 1013,4 20
19.01.2019 21:00:00 8,0 6,0 8 4 N - 10
19.01.2019 20:00:00 11,0 7,0 11 6 NNW - 10
19.01.2019 19:00:00 12,6 10,1 8 4 WSW 1012,4 20
19.01.2019 18:00:00 13,0 11,0 21 11 SSE - 10
19.01.2019 17:00:00 13,0 10,0 15 8 SE - 10
19.01.2019 16:00:00 14,6 9,6 11 6 ESE 1012,4 20
19.01.2019 15:00:00 - - - - - - -
19.01.2019 14:00:00 14,0 8,0 9 5 SE - 10
19.01.2019 13:00:00 14,2 7,5 5 3 SE 1013,4 20
19.01.2019 12:00:00 14,0 7,0 5 3 ESE - 10
19.01.2019 11:00:00 - - - - - - -
19.01.2019 10:00:00 8,6 6,2 8 4 WNW 1014,4 20
19.01.2019 09:00:00 4,0 3,0 8 4 WNW - 10
19.01.2019 08:00:00 3,0 2,0 13 7 NW - 10
19.01.2019 07:00:00 3,2 2,3 15 8 NW 1013,4 20
19.01.2019 06:00:00 3,0 2,0 13 7 NW - 10
19.01.2019 05:00:00 4,0 3,0 13 7 NW - 10
19.01.2019 04:00:00 3,6 2,7 13 7 WNW 1013,9 20
19.01.2019 03:00:00 4,0 3,0 11 6 W - 10
19.01.2019 02:00:00 4,0 3,0 15 8 NW - 10
19.01.2019 01:00:00 5,0 4,1 11 6 NW 1014,5 20
19.01.2019 00:00:00 5,0 4,0 8 4 NNW - 10
18.01.2019 23:00:00 6,0 5,0 11 6 NW - 10
18.01.2019 22:00:00 6,0 4,5 4 2 W 1014,3 20
18.01.2019 21:00:00 8,0 6,0 5 3 NW - 10
18.01.2019 20:00:00 9,0 7,0 5 3 W - 10
18.01.2019 19:00:00 9,6 7,7 9 5 SW 1013,8 20
18.01.2019 18:00:00 10,0 8,0 4 2 SSE - 10
18.01.2019 17:00:00 11,0 7,0 8 4 SSW - 10
18.01.2019 16:00:00 13,6 9,7 5 3 SSW 1013,7 20
18.01.2019 15:00:00 15,0 9,0 4 2 SE - 10
18.01.2019 14:00:00 15,0 10,0 5 3 S - 10
18.01.2019 13:00:00 14,6 9,2 8 4 SSE 1015,3 20
18.01.2019 12:00:00 16,0 9,0 9 5 SSE - 10
18.01.2019 11:00:00 - - - - - - -
18.01.2019 10:00:00 10,0 8,1 4 2 N 1015,5 10
18.01.2019 09:00:00 7,0 7,0 8 4 - - 10
18.01.2019 08:00:00 4,0 3,0 11 6 NNW - 10
18.01.2019 07:00:00 3,6 2,9 11 6 NNW 1014,5 12
18.01.2019 06:00:00 4,0 3,0 11 6 NNW - 10
18.01.2019 05:00:00 4,0 3,0 8 4 E - 10
18.01.2019 04:00:00 4,4 3,5 11 6 NW 1015,2 16
18.01.2019 03:00:00 4,0 3,0 11 6 W - 10
18.01.2019 02:00:00 4,0 4,0 13 7 NW - 10
18.01.2019 01:00:00 4,2 3,5 13 7 WNW 1016,6 16
18.01.2019 00:00:00 4,0 3,0 11 6 NW - 10
17.01.2019 23:00:00 4,0 3,0 11 6 NNW - 10
17.01.2019 22:00:00 5,0 4,1 4 2 N 1017,4 16
17.01.2019 21:00:00 6,0 5,0 11 6 - - 10
17.01.2019 20:00:00 6,0 5,0 11 6 NNW - 10
17.01.2019 19:00:00 8,2 6,7 8 4 S 1017,5 20
17.01.2019 18:00:00 9,0 8,0 8 4 S - 10
17.01.2019 17:00:00 10,0 7,0 11 6 SE - 10
17.01.2019 16:00:00 12,2 6,0 8 4 SE 1018,1 25
17.01.2019 15:00:00 13,0 6,0 5 3 ESE - 10
17.01.2019 14:00:00 12,0 6,0 5 3 SE - 10
17.01.2019 13:00:00 12,0 5,0 5 3 E 1019,3 25
17.01.2019 12:00:00 13,0 4,0 5 3 SE - 10
17.01.2019 11:00:00 9,0 3,0 4 2 - - 10
17.01.2019 10:00:00 5,2 2,7 5 3 W 1020,4 25
17.01.2019 09:00:00 2,0 1,0 8 4 NW - 10
17.01.2019 08:00:00 0,0 -1,0 13 7 WNW - 10
17.01.2019 07:00:00 0,0 -0,7 13 7 NW 1020,4 20
17.01.2019 06:00:00 1,0 0,0 11 6 NW - 10
17.01.2019 05:00:00 1,0 0,0 11 6 NW - 10
17.01.2019 04:00:00 0,8 0,4 13 7 NW 1021,3 20
17.01.2019 03:00:00 1,0 1,0 13 7 WNW - 10
17.01.2019 02:00:00 1,0 0,0 11 6 NW - 10
17.01.2019 01:00:00 1,8 1,2 11 6 NW 1021,4 20
17.01.2019 00:00:00 2,0 1,0 13 7 NW - 10
16.01.2019 23:00:00 2,0 1,0 13 7 W - 10
16.01.2019 22:00:00 2,8 2,1 13 7 NW 1022,3 20
16.01.2019 21:00:00 3,0 2,0 9 5 NNW - 10
16.01.2019 20:00:00 5,0 3,0 8 4 - - 10
16.01.2019 19:00:00 6,0 2,6 11 6 NNE 1021,8 20
16.01.2019 18:00:00 7,0 3,0 5 3 WNW - 10
16.01.2019 17:00:00 10,0 3,0 8 4 W - 10
16.01.2019 16:00:00 13,0 3,7 9 5 SW 1022,4 25
16.01.2019 15:00:00 13,0 2,0 5 3 S - 10
16.01.2019 14:00:00 11,0 2,0 5 3 S - 10
16.01.2019 13:00:00 11,2 0,9 8 4 SSE 1022,6 20
16.01.2019 12:00:00 10,0 1,0 4 2 - - 10
16.01.2019 11:00:00 - - - - - - -
16.01.2019 10:00:00 4,0 -0,8 5 3 W 1023,9 25
16.01.2019 09:00:00 2,0 -1,0 4 2 W - 10
16.01.2019 08:00:00 0,0 -1,0 9 5 NW - 10
16.01.2019 07:00:00 0,0 -1,4 15 8 WNW 1022,7 40
16.01.2019 06:00:00 0,0 -1,0 13 7 NW - 10
16.01.2019 05:00:00 1,0 0,0 11 6 WNW - 10
16.01.2019 04:00:00 2,0 0,4 13 7 WNW 1022,5 40
16.01.2019 03:00:00 2,0 1,0 13 7 W - 10
16.01.2019 02:00:00 2,0 1,0 9 5 WNW - 10
16.01.2019 01:00:00 2,6 0,3 0 0 N 1022,5 40
16.01.2019 00:00:00 4,0 0,0 9 5 WNW - 10
15.01.2019 23:00:00 4,0 -1,0 15 8 WNW - 10
15.01.2019 22:00:00 4,2 -1,0 18 10 WNW 1021,5 40
15.01.2019 21:00:00 5,0 -2,0 15 8 WNW - 10
15.01.2019 20:00:00 4,0 -2,0 9 5 W - 10
15.01.2019 19:00:00 5,0 -2,8 15 8 NW 1019,9 40
15.01.2019 18:00:00 6,0 -4,0 9 5 NNW - 10
15.01.2019 17:00:00 8,0 -6,0 26 14 N - 10

tt = Température de l'air
td = dewpoint
ff = Vitesse du vent
dd = Direction du vent
ppp = reduced air pressure
vv = visibility

stations d'obs. à proximité